User: anonymous   Login
Location: Unspecified
(0.0000°N, 0.0000°E)
Time: 18:30:06
(UTC+02:00)
Language:

Ariane H10 - Orbit

View from above orbital plane
View from above orbital plane
View from above satellite
View from above satellite

Ground track
Ground track

The orbit data is extracted from the following two-line orbital elements,

1 21815U 91084C   18142.48464981 +.00000079 +00000-0 +30003-3 0  9994
2 21815 004.1754 310.1882 7191731 343.2305 001.7802 02.31857510220220
Epoch (UTC): 22 May 2018 11:37:53
Eccentricity: 0.7191731
inclination: 4.1754°
perigee height: 393 km
apogee height: 35076 km
right ascension of ascending node: 310.1882°
argument of perigee: 343.2305°
revolutions per day: 2.31857510
mean anomaly at epoch: 1.7802°
orbit number at epoch: 22022

The dashed part of the orbit path shows where the satellite is in the earth's shadow,  

DLR